Time,TemperatureF,DewpointF,PressureIn,WindDirection,WindDirectionDegrees,WindSpeedMPH,WindSpeedGustMPH,Humidity,HourlyPrecipIn,Conditions,Clouds,dailyrainin,SoftwareType,DateUTC
2013-08-20 00:00:00,69.4,62.2,29.92,NE,41,0.0,0.0,78,0.00,,,0.00,Wunderground v.1.15,2013-08-20 05:00:00,
2013-08-20 00:06:00,69.4,62.2,29.92,ENE,70,0.0,4.0,78,0.00,,,0.00,Wunderground v.1.15,2013-08-20 05:06:00,
2013-08-20 00:12:00,69.3,62.1,29.92,East,79,0.0,0.0,78,0.00,,,0.00,Wunderground v.1.15,2013-08-20 05:12:00,
2013-08-20 00:18:00,69.3,62.1,29.92,SE,145,0.0,0.0,78,0.00,,,0.00,Wunderground v.1.15,2013-08-20 05:18:00,
2013-08-20 00:24:00,69.2,62.0,29.92,SE,139,0.0,1.0,78,0.00,,,0.00,Wunderground v.1.15,2013-08-20 05:24:00,
2013-08-20 00:30:00,69.1,61.9,29.92,ESE,118,0.0,0.0,78,0.00,,,0.00,Wunderground v.1.15,2013-08-20 05:30:00,
2013-08-20 00:36:00,69.0,62.2,29.92,East,100,1.0,2.0,79,0.00,,,0.00,Wunderground v.1.15,2013-08-20 05:36:00,
2013-08-20 00:42:00,69.0,62.2,29.92,SE,145,1.0,1.0,79,0.00,,,0.00,Wunderground v.1.15,2013-08-20 05:42:00,
2013-08-20 00:48:00,68.9,62.1,29.92,SE,133,0.0,1.0,79,0.00,,,0.00,Wunderground v.1.15,2013-08-20 05:48:00,
2013-08-20 00:54:00,68.9,62.1,29.92,SE,138,1.0,2.0,79,0.00,,,0.00,Wunderground v.1.15,2013-08-20 05:54:00,
2013-08-20 01:00:00,68.8,62.4,29.92,SE,135,0.0,0.0,80,0.00,,,0.00,Wunderground v.1.15,2013-08-20 06:00:00,
2013-08-20 01:06:00,68.7,62.3,29.92,SSE,155,0.0,2.0,80,0.00,,,0.00,Wunderground v.1.15,2013-08-20 06:06:00,
2013-08-20 01:12:00,68.7,62.3,29.92,SSE,166,0.0,1.0,80,0.00,,,0.00,Wunderground v.1.15,2013-08-20 06:12:00,
2013-08-20 01:18:00,68.6,62.2,29.92,SSE,165,0.0,1.0,80,0.00,,,0.00,Wunderground v.1.15,2013-08-20 06:18:00,
2013-08-20 01:24:00,68.6,62.2,29.92,ESE,107,0.0,3.0,80,0.00,,,0.00,Wunderground v.1.15,2013-08-20 06:24:00,
2013-08-20 01:30:00,68.5,62.4,29.92,SE,131,0.0,1.0,81,0.00,,,0.00,Wunderground v.1.15,2013-08-20 06:30:00,
2013-08-20 01:36:00,68.4,62.3,29.92,SE,134,0.0,1.0,81,0.00,,,0.00,Wunderground v.1.15,2013-08-20 06:36:00,
2013-08-20 01:42:00,68.3,62.2,29.92,ESE,122,0.0,1.0,81,0.00,,,0.00,Wunderground v.1.15,2013-08-20 06:42:00,
2013-08-20 01:48:00,68.3,62.2,29.92,SSE,158,0.0,1.0,81,0.00,,,0.00,Wunderground v.1.15,2013-08-20 06:48:00,
2013-08-20 01:54:00,68.2,62.1,29.92,SSE,150,0.0,0.0,81,0.00,,,0.00,Wunderground v.1.15,2013-08-20 06:54:00,
2013-08-20 02:00:00,68.1,62.4,29.92,ENE,70,0.0,1.0,82,0.00,,,0.00,Wunderground v.1.15,2013-08-20 07:00:00,
2013-08-20 02:06:00,68.0,62.3,29.92,SE,128,0.0,1.0,82,0.00,,,0.00,Wunderground v.1.15,2013-08-20 07:06:00,
2013-08-20 02:12:00,67.7,62.3,29.92,SE,129,0.0,0.0,83,0.00,,,0.00,Wunderground v.1.15,2013-08-20 07:12:00,
2013-08-20 02:18:00,67.4,62.4,29.92,SE,140,0.0,0.0,84,0.00,,,0.00,Wunderground v.1.15,2013-08-20 07:18:00,
2013-08-20 02:24:00,67.2,62.2,29.92,SSE,152,0.0,0.0,84,0.00,,,0.00,Wunderground v.1.15,2013-08-20 07:24:00,
2013-08-20 02:30:00,67.1,62.4,29.92,SSE,153,0.0,0.0,85,0.00,,,0.00,Wunderground v.1.15,2013-08-20 07:30:00,
2013-08-20 02:36:00,66.9,62.2,29.92,SSE,150,0.0,0.0,85,0.00,,,0.00,Wunderground v.1.15,2013-08-20 07:36:00,
2013-08-20 02:42:00,66.8,62.1,29.92,SSE,163,0.0,1.0,85,0.00,,,0.00,Wunderground v.1.15,2013-08-20 07:42:00,
2013-08-20 02:48:00,66.8,62.1,29.92,SE,136,0.0,1.0,85,0.00,,,0.00,Wunderground v.1.15,2013-08-20 07:48:00,
2013-08-20 02:54:00,66.8,62.1,29.92,SE,145,0.0,0.0,85,0.00,,,0.00,Wunderground v.1.15,2013-08-20 07:54:00,
2013-08-20 03:00:00,66.7,62.0,29.93,SSE,149,0.0,0.0,85,0.00,,,0.00,Wunderground v.1.15,2013-08-20 08:00:00,
2013-08-20 03:06:00,66.6,62.3,29.93,East,90,0.0,1.0,86,0.00,,,0.00,Wunderground v.1.15,2013-08-20 08:06:00,
2013-08-20 03:12:00,66.7,62.4,29.93,SSE,156,0.0,0.0,86,0.00,,,0.00,Wunderground v.1.15,2013-08-20 08:12:00,
2013-08-20 03:18:00,67.1,62.4,29.93,SE,134,0.0,1.0,85,0.00,,,0.00,Wunderground v.1.15,2013-08-20 08:18:00,
2013-08-20 03:24:00,67.4,62.7,29.93,SSE,150,0.0,0.0,85,0.00,,,0.00,Wunderground v.1.15,2013-08-20 08:24:00,
2013-08-20 03:30:00,67.5,62.8,29.93,SSE,150,0.0,0.0,85,0.00,,,0.00,Wunderground v.1.15,2013-08-20 08:30:00,
2013-08-20 03:36:00,67.4,62.7,29.93,SE,145,0.0,0.0,85,0.00,,,0.00,Wunderground v.1.15,2013-08-20 08:36:00,
2013-08-20 03:42:00,67.5,62.8,29.93,SE,145,0.0,0.0,85,0.00,,,0.00,Wunderground v.1.15,2013-08-20 08:42:00,
2013-08-20 03:48:00,67.6,62.9,29.93,SSE,156,0.0,2.0,85,0.00,,,0.00,Wunderground v.1.15,2013-08-20 08:48:00,
2013-08-20 03:54:00,67.6,62.6,29.93,SE,140,0.0,0.0,84,0.00,,,0.00,Wunderground v.1.15,2013-08-20 08:54:00,
2013-08-20 04:00:00,67.6,62.9,29.93,SE,143,0.0,0.0,85,0.00,,,0.00,Wunderground v.1.15,2013-08-20 09:00:00,
2013-08-20 04:06:00,67.7,62.7,29.93,SSE,153,0.0,0.0,84,0.00,,,0.00,Wunderground v.1.15,2013-08-20 09:06:00,
2013-08-20 04:12:00,67.8,62.8,29.93,SE,145,0.0,0.0,84,0.00,,,0.00,Wunderground v.1.15,2013-08-20 09:12:00,
2013-08-20 04:18:00,67.8,62.8,29.93,SE,131,0.0,0.0,84,0.00,,,0.00,Wunderground v.1.15,2013-08-20 09:18:00,
2013-08-20 04:24:00,67.8,62.8,29.93,SE,141,0.0,0.0,84,0.00,,,0.00,Wunderground v.1.15,2013-08-20 09:24:00,
2013-08-20 04:30:00,67.7,63.0,29.93,SSE,150,0.0,0.0,85,0.00,,,0.00,Wunderground v.1.15,2013-08-20 09:30:00,
2013-08-20 04:36:00,67.6,62.9,29.93,SE,138,0.0,0.0,85,0.00,,,0.00,Wunderground v.1.15,2013-08-20 09:36:00,
2013-08-20 04:42:00,67.5,62.8,29.93,SE,138,0.0,0.0,85,0.00,,,0.00,Wunderground v.1.15,2013-08-20 09:42:00,
2013-08-20 04:48:00,67.5,63.2,29.93,SE,124,0.0,0.0,86,0.00,,,0.00,Wunderground v.1.15,2013-08-20 09:48:00,
2013-08-20 04:54:00,67.5,63.2,29.93,SE,145,0.0,0.0,86,0.00,,,0.00,Wunderground v.1.15,2013-08-20 09:54:00,
2013-08-20 05:00:00,67.6,63.3,29.93,SE,131,0.0,3.0,86,0.00,,,0.00,Wunderground v.1.15,2013-08-20 10:00:00,
2013-08-20 05:06:00,67.8,63.5,29.93,SSE,148,0.0,3.0,86,0.00,,,0.00,Wunderground v.1.15,2013-08-20 10:06:00,
2013-08-20 05:12:00,67.8,63.5,29.94,East,79,0.0,0.0,86,0.00,,,0.00,Wunderground v.1.15,2013-08-20 10:12:00,
2013-08-20 05:18:00,68.0,63.7,29.94,ESE,112,0.0,1.0,86,0.00,,,0.00,Wunderground v.1.15,2013-08-20 10:18:00,
2013-08-20 05:24:00,68.2,63.9,29.94,SE,139,0.0,3.0,86,0.00,,,0.00,Wunderground v.1.15,2013-08-20 10:24:00,
2013-08-20 05:30:00,68.4,63.7,29.94,SE,141,0.0,0.0,85,0.00,,,0.00,Wunderground v.1.15,2013-08-20 10:30:00,
2013-08-20 05:36:00,68.6,63.9,29.94,East,90,0.0,0.0,85,0.00,,,0.00,Wunderground v.1.15,2013-08-20 10:36:00,
2013-08-20 05:42:00,68.8,64.1,29.95,SE,132,0.0,1.0,85,0.00,,,0.00,Wunderground v.1.15,2013-08-20 10:42:00,
2013-08-20 05:48:00,69.0,64.3,29.95,SE,133,0.0,1.0,85,0.00,,,0.00,Wunderground v.1.15,2013-08-20 10:48:00,
2013-08-20 05:54:00,69.0,64.3,29.95,SE,127,0.0,0.0,85,0.00,,,0.00,Wunderground v.1.15,2013-08-20 10:54:00,
2013-08-20 06:00:00,69.1,64.4,29.95,SE,127,0.0,0.0,85,0.00,,,0.00,Wunderground v.1.15,2013-08-20 11:00:00,
2013-08-20 06:06:00,69.1,64.1,29.96,SE,127,0.0,0.0,84,0.00,,,0.00,Wunderground v.1.15,2013-08-20 11:06:00,
2013-08-20 06:12:00,69.2,64.5,29.96,SE,124,0.0,0.0,85,0.00,,,0.00,Wunderground v.1.15,2013-08-20 11:12:00,
2013-08-20 06:18:00,69.1,64.1,29.96,SE,130,0.0,0.0,84,0.00,,,0.00,Wunderground v.1.15,2013-08-20 11:18:00,
2013-08-20 06:24:00,69.0,64.3,29.96,SE,129,0.0,0.0,85,0.00,,,0.00,Wunderground v.1.15,2013-08-20 11:24:00,
2013-08-20 06:30:00,68.8,64.1,29.96,SE,135,0.0,0.0,85,0.00,,,0.00,Wunderground v.1.15,2013-08-20 11:30:00,
2013-08-20 06:36:00,68.7,64.0,29.97,ESE,117,0.0,0.0,85,0.00,,,0.00,Wunderground v.1.15,2013-08-20 11:36:00,
2013-08-20 06:42:00,68.6,63.9,29.97,ESE,117,0.0,0.0,85,0.00,,,0.00,Wunderground v.1.15,2013-08-20 11:42:00,
2013-08-20 06:48:00,68.6,64.2,29.97,ESE,117,0.0,0.0,86,0.00,,,0.00,Wunderground v.1.15,2013-08-20 11:48:00,
2013-08-20 06:54:00,68.6,64.2,29.97,East,99,0.0,0.0,86,0.00,,,0.00,Wunderground v.1.15,2013-08-20 11:54:00,
2013-08-20 07:00:00,68.9,64.5,29.97,ESE,115,0.0,0.0,86,0.00,,,0.00,Wunderground v.1.15,2013-08-20 12:00:00,
2013-08-20 07:06:00,69.0,64.3,29.97,SE,145,0.0,0.0,85,0.00,,,0.00,Wunderground v.1.15,2013-08-20 12:06:00,
2013-08-20 07:12:00,69.1,64.4,29.97,SSE,152,0.0,0.0,85,0.00,,,0.00,Wunderground v.1.15,2013-08-20 12:12:00,
2013-08-20 07:18:00,69.3,64.6,29.97,SE,134,0.0,0.0,85,0.00,,,0.00,Wunderground v.1.15,2013-08-20 12:18:00,
2013-08-20 07:24:00,69.5,64.8,29.97,SSE,158,0.0,0.0,85,0.00,,,0.00,Wunderground v.1.15,2013-08-20 12:24:00,
2013-08-20 07:30:00,69.7,65.0,29.97,SSE,167,0.0,0.0,85,0.00,,,0.00,Wunderground v.1.15,2013-08-20 12:30:00,
2013-08-20 07:36:00,69.9,65.2,29.98,SE,145,0.0,0.0,85,0.00,,,0.00,Wunderground v.1.15,2013-08-20 12:36:00,
2013-08-20 07:42:00,70.2,65.5,29.98,SE,141,0.0,2.0,85,0.00,,,0.00,Wunderground v.1.15,2013-08-20 12:42:00,
2013-08-20 07:48:00,70.6,65.5,29.98,SW,214,0.0,2.0,84,0.00,,,0.00,Wunderground v.1.15,2013-08-20 12:48:00,
2013-08-20 07:54:00,70.9,65.8,29.98,ESE,122,0.0,1.0,84,0.00,,,0.00,Wunderground v.1.15,2013-08-20 12:54:00,
2013-08-20 08:00:00,71.2,65.8,29.98,SSE,148,1.0,1.0,83,0.00,,,0.00,Wunderground v.1.15,2013-08-20 13:00:00,
2013-08-20 08:06:00,71.9,66.1,29.98,SSE,152,1.0,1.0,82,0.00,,,0.00,Wunderground v.1.15,2013-08-20 13:06:00,
2013-08-20 08:12:00,72.4,66.2,29.98,SSE,158,0.0,1.0,81,0.00,,,0.00,Wunderground v.1.15,2013-08-20 13:12:00,
2013-08-20 08:18:00,72.6,66.1,29.98,ESE,112,0.0,1.0,80,0.00,,,0.00,Wunderground v.1.15,2013-08-20 13:18:00,
2013-08-20 08:24:00,72.7,66.2,29.98,SSE,155,1.0,1.0,80,0.00,,,0.00,Wunderground v.1.15,2013-08-20 13:24:00,
2013-08-20 08:30:00,72.9,66.4,29.98,ESE,108,1.0,1.0,80,0.00,,,0.00,Wunderground v.1.15,2013-08-20 13:30:00,
2013-08-20 08:36:00,73.4,66.5,29.98,SSE,150,1.0,1.0,79,0.00,,,0.00,Wunderground v.1.15,2013-08-20 13:36:00,
2013-08-20 08:42:00,73.8,66.9,29.98,ESE,121,1.0,3.0,79,0.00,,,0.00,Wunderground v.1.15,2013-08-20 13:42:00,
2013-08-20 08:48:00,74.0,66.7,29.98,SSE,163,1.0,3.0,78,0.00,,,0.00,Wunderground v.1.15,2013-08-20 13:48:00,
2013-08-20 08:54:00,74.1,66.4,29.98,SE,135,1.0,1.0,77,0.00,,,0.00,Wunderground v.1.15,2013-08-20 13:54:00,
2013-08-20 09:00:00,74.2,66.5,29.99,ESE,114,1.0,1.0,77,0.00,,,0.00,Wunderground v.1.15,2013-08-20 14:00:00,
2013-08-20 09:06:00,74.3,66.6,29.99,SSE,167,1.0,1.0,77,0.00,,,0.00,Wunderground v.1.15,2013-08-20 14:06:00,
2013-08-20 09:14:00,74.6,66.5,29.99,SE,146,1.0,1.0,76,0.00,,,0.00,Wunderground v.1.15,2013-08-20 14:14:00,
2013-08-20 09:20:00,74.6,66.5,29.99,SSE,148,1.0,1.0,76,0.00,,,0.00,Wunderground v.1.15,2013-08-20 14:20:00,
2013-08-20 09:26:00,74.9,66.8,29.99,SE,130,1.0,4.0,76,0.00,,,0.00,Wunderground v.1.15,2013-08-20 14:26:00,
2013-08-20 09:32:00,75.1,66.6,29.99,SE,135,1.0,1.0,75,0.00,,,0.00,Wunderground v.1.15,2013-08-20 14:32:00,
2013-08-20 09:38:00,75.2,66.3,29.99,SE,130,1.0,1.0,74,0.00,,,0.00,Wunderground v.1.15,2013-08-20 14:38:00,
2013-08-20 09:44:00,75.7,67.2,29.99,SSE,150,1.0,1.0,75,0.00,,,0.00,Wunderground v.1.15,2013-08-20 14:44:00,
2013-08-20 09:50:00,76.1,66.8,29.99,ESE,107,1.0,2.0,73,0.00,,,0.00,Wunderground v.1.15,2013-08-20 14:50:00,
2013-08-20 09:56:00,76.2,66.5,29.99,South,187,1.0,3.0,72,0.00,,,0.00,Wunderground v.1.15,2013-08-20 14:56:00,
2013-08-20 10:02:00,76.2,66.5,29.99,ESE,107,1.0,3.0,72,0.00,,,0.00,Wunderground v.1.15,2013-08-20 15:02:00,
2013-08-20 10:08:00,76.5,66.8,29.99,SSE,149,1.0,3.0,72,0.00,,,0.00,Wunderground v.1.15,2013-08-20 15:08:00,
2013-08-20 10:14:00,76.9,67.2,29.99,SSW,200,1.0,3.0,72,0.00,,,0.00,Wunderground v.1.15,2013-08-20 15:14:00,
2013-08-20 10:20:00,77.2,66.7,29.99,SSE,148,1.0,2.0,70,0.00,,,0.00,Wunderground v.1.15,2013-08-20 15:20:00,
2013-08-20 10:26:00,77.1,66.6,29.99,ESE,106,1.0,3.0,70,0.00,,,0.00,Wunderground v.1.15,2013-08-20 15:26:00,
2013-08-20 10:32:00,77.4,66.8,29.99,SE,129,1.0,3.0,70,0.00,,,0.00,Wunderground v.1.15,2013-08-20 15:32:00,
2013-08-20 10:38:00,77.6,67.0,29.99,North,357,1.0,3.0,70,0.00,,,0.00,Wunderground v.1.15,2013-08-20 15:38:00,
2013-08-20 10:44:00,77.9,66.5,29.99,ESE,114,1.0,2.0,68,0.00,,,0.00,Wunderground v.1.15,2013-08-20 15:44:00,
2013-08-20 10:50:00,78.0,66.6,29.99,ESE,121,2.0,3.0,68,0.00,,,0.00,Wunderground v.1.15,2013-08-20 15:50:00,
2013-08-20 10:56:00,78.3,66.9,29.99,SSE,149,2.0,3.0,68,0.00,,,0.00,Wunderground v.1.15,2013-08-20 15:56:00,
2013-08-20 11:02:00,78.7,66.4,29.98,ENE,66,1.0,1.0,66,0.00,,,0.00,Wunderground v.1.15,2013-08-20 16:02:00,
2013-08-20 11:08:00,79.1,67.2,29.98,SE,124,1.0,2.0,67,0.00,,,0.00,Wunderground v.1.15,2013-08-20 16:08:00,
2013-08-20 11:14:00,79.4,67.0,29.98,East,91,1.0,1.0,66,0.00,,,0.00,Wunderground v.1.15,2013-08-20 16:14:00,
2013-08-20 11:20:00,79.6,67.7,29.98,NNW,333,1.0,1.0,67,0.00,,,0.00,Wunderground v.1.15,2013-08-20 16:20:00,
2013-08-20 11:26:00,79.7,66.0,29.98,WSW,240,1.0,4.0,63,0.00,,,0.00,Wunderground v.1.15,2013-08-20 16:26:00,
2013-08-20 11:32:00,79.7,65.5,29.98,SE,146,2.0,4.0,62,0.00,,,0.00,Wunderground v.1.15,2013-08-20 16:32:00,
2013-08-20 11:38:00,80.1,65.9,29.98,SW,222,1.0,4.0,62,0.00,,,0.00,Wunderground v.1.15,2013-08-20 16:38:00,
2013-08-20 11:44:00,80.2,65.5,29.98,SE,129,1.0,4.0,61,0.00,,,0.00,Wunderground v.1.15,2013-08-20 16:44:00,
2013-08-20 11:50:00,80.5,65.8,29.98,SE,131,1.0,1.0,61,0.00,,,0.00,Wunderground v.1.15,2013-08-20 16:50:00,
2013-08-20 11:56:00,81.1,67.3,29.98,NE,44,1.0,7.0,63,0.00,,,0.00,Wunderground v.1.15,2013-08-20 16:56:00,
2013-08-20 12:02:00,81.6,66.4,29.98,SE,145,1.0,1.0,60,0.00,,,0.00,Wunderground v.1.15,2013-08-20 17:02:00,
2013-08-20 12:08:00,81.5,66.3,29.98,ESE,107,1.0,2.0,60,0.00,,,0.00,Wunderground v.1.15,2013-08-20 17:08:00,
2013-08-20 12:14:00,81.9,66.2,29.98,SSE,160,1.0,2.0,59,0.00,,,0.00,Wunderground v.1.15,2013-08-20 17:14:00,
2013-08-20 12:20:00,82.0,66.3,29.98,SE,137,1.0,2.0,59,0.00,,,0.00,Wunderground v.1.15,2013-08-20 17:20:00,
2013-08-20 12:26:00,82.0,67.2,29.98,SW,225,1.0,2.0,61,0.00,,,0.00,Wunderground v.1.15,2013-08-20 17:26:00,
2013-08-20 12:32:00,81.9,66.6,29.98,WNW,287,0.0,1.0,60,0.00,,,0.00,Wunderground v.1.15,2013-08-20 17:32:00,
2013-08-20 12:38:00,81.7,66.9,29.98,West,276,0.0,1.0,61,0.00,,,0.00,Wunderground v.1.15,2013-08-20 17:38:00,
2013-08-20 12:44:00,82.0,67.7,29.97,ESE,118,1.0,2.0,62,0.00,,,0.00,Wunderground v.1.15,2013-08-20 17:44:00,
2013-08-20 12:50:00,82.0,67.2,29.97,WNW,284,1.0,1.0,61,0.00,,,0.00,Wunderground v.1.15,2013-08-20 17:50:00,
2013-08-20 12:56:00,81.7,67.9,29.97,WNW,291,1.0,3.0,63,0.00,,,0.00,Wunderground v.1.15,2013-08-20 17:56:00,
2013-08-20 13:02:00,81.7,67.4,29.97,SE,142,1.0,2.0,62,0.00,,,0.00,Wunderground v.1.15,2013-08-20 18:02:00,
2013-08-20 13:08:00,82.6,65.8,29.97,SSE,148,1.0,2.0,57,0.00,,,0.00,Wunderground v.1.15,2013-08-20 18:08:00,
2013-08-20 13:14:00,83.1,67.3,29.96,WSW,249,2.0,2.0,59,0.00,,,0.00,Wunderground v.1.15,2013-08-20 18:14:00,
2013-08-20 13:20:00,83.3,68.0,29.96,SE,124,1.0,3.0,60,0.00,,,0.00,Wunderground v.1.15,2013-08-20 18:20:00,
2013-08-20 13:26:00,83.7,67.8,29.96,SE,137,1.0,4.0,59,0.00,,,0.00,Wunderground v.1.15,2013-08-20 18:26:00,
2013-08-20 13:32:00,84.0,66.6,29.96,ENE,78,1.0,1.0,56,0.00,,,0.00,Wunderground v.1.15,2013-08-20 18:32:00,
2013-08-20 13:38:00,84.4,67.0,29.96,ESE,118,1.0,2.0,56,0.00,,,0.00,Wunderground v.1.15,2013-08-20 18:38:00,
2013-08-20 13:44:00,84.2,66.8,29.96,NNW,338,1.0,1.0,56,0.00,,,0.00,Wunderground v.1.15,2013-08-20 18:44:00,
2013-08-20 13:50:00,84.5,66.6,29.96,SSE,166,1.0,2.0,55,0.00,,,0.00,Wunderground v.1.15,2013-08-20 18:50:00,
2013-08-20 13:56:00,84.7,66.7,29.96,WNW,290,1.0,2.0,55,0.00,,,0.00,Wunderground v.1.15,2013-08-20 18:56:00,
2013-08-20 14:02:00,83.8,67.9,29.96,West,276,1.0,1.0,59,0.00,,,0.00,Wunderground v.1.15,2013-08-20 19:02:00,
2013-08-20 14:08:00,82.8,68.0,29.96,WNW,285,0.0,1.0,61,0.00,,,0.00,Wunderground v.1.15,2013-08-20 19:08:00,
2013-08-20 14:14:00,81.7,67.4,29.96,NNE,30,0.0,1.0,62,0.00,,,0.00,Wunderground v.1.15,2013-08-20 19:14:00,
2013-08-20 14:20:00,81.3,67.5,29.96,West,281,1.0,1.0,63,0.00,,,0.00,Wunderground v.1.15,2013-08-20 19:20:00,
2013-08-20 14:26:00,81.4,68.1,29.96,NW,305,1.0,1.0,64,0.00,,,0.00,Wunderground v.1.15,2013-08-20 19:26:00,
2013-08-20 14:32:00,81.7,68.8,29.95,North,359,0.0,0.0,65,0.00,,,0.00,Wunderground v.1.15,2013-08-20 19:32:00,
2013-08-20 14:38:00,82.1,68.7,29.95,WNW,288,0.0,1.0,64,0.00,,,0.00,Wunderground v.1.15,2013-08-20 19:38:00,
2013-08-20 14:44:00,82.2,67.4,29.95,NNE,30,0.0,0.0,61,0.00,,,0.00,Wunderground v.1.15,2013-08-20 19:44:00,
2013-08-20 14:50:00,81.8,68.4,29.95,North,10,1.0,1.0,64,0.00,,,0.00,Wunderground v.1.15,2013-08-20 19:50:00,
2013-08-20 14:56:00,81.2,67.9,29.95,NNW,328,1.0,1.0,64,0.00,,,0.00,Wunderground v.1.15,2013-08-20 19:56:00,
2013-08-20 15:02:00,81.5,67.7,29.95,ENE,67,0.0,0.0,63,0.00,,,0.00,Wunderground v.1.15,2013-08-20 20:02:00,
2013-08-20 15:08:00,81.8,67.5,29.95,WNW,284,1.0,1.0,62,0.00,,,0.00,Wunderground v.1.15,2013-08-20 20:08:00,
2013-08-20 15:14:00,82.1,68.3,29.95,WNW,291,0.0,1.0,63,0.00,,,0.00,Wunderground v.1.15,2013-08-20 20:14:00,
2013-08-20 15:20:00,82.1,67.8,29.95,WNW,287,0.0,0.0,62,0.00,,,0.00,Wunderground v.1.15,2013-08-20 20:20:00,
2013-08-20 15:26:00,82.2,67.9,29.95,West,277,0.0,1.0,62,0.00,,,0.00,Wunderground v.1.15,2013-08-20 20:26:00,
2013-08-20 15:32:00,82.1,68.3,29.95,WNW,284,1.0,2.0,63,0.00,,,0.00,Wunderground v.1.15,2013-08-20 20:32:00,
2013-08-20 15:38:00,82.2,67.9,29.95,NNW,343,1.0,2.0,62,0.00,,,0.00,Wunderground v.1.15,2013-08-20 20:38:00,
2013-08-20 15:44:00,82.3,68.0,29.94,SE,138,1.0,1.0,62,0.00,,,0.00,Wunderground v.1.15,2013-08-20 20:44:00,
2013-08-20 15:50:00,82.6,68.3,29.94,WNW,293,1.0,1.0,62,0.00,,,0.00,Wunderground v.1.15,2013-08-20 20:50:00,
2013-08-20 15:56:00,82.7,68.4,29.94,WSW,258,1.0,1.0,62,0.00,,,0.00,Wunderground v.1.15,2013-08-20 20:56:00,
2013-08-20 16:02:00,82.9,68.1,29.94,SSW,192,1.0,1.0,61,0.00,,,0.00,Wunderground v.1.15,2013-08-20 21:02:00,
2013-08-20 16:08:00,83.4,68.5,29.94,SW,214,0.0,1.0,61,0.00,,,0.00,Wunderground v.1.15,2013-08-20 21:08:00,
2013-08-20 16:14:00,83.6,68.7,29.94,WSW,256,0.0,1.0,61,0.00,,,0.00,Wunderground v.1.15,2013-08-20 21:14:00,
2013-08-20 16:20:00,83.5,68.2,29.94,West,278,0.0,0.0,60,0.00,,,0.00,Wunderground v.1.15,2013-08-20 21:20:00,
2013-08-20 16:26:00,82.9,68.5,29.94,WNW,291,1.0,1.0,62,0.00,,,0.00,Wunderground v.1.15,2013-08-20 21:26:00,
2013-08-20 16:32:00,82.8,68.4,29.94,SSE,166,0.0,1.0,62,0.00,,,0.00,Wunderground v.1.15,2013-08-20 21:32:00,
2013-08-20 16:38:00,82.6,68.7,29.94,West,263,0.0,1.0,63,0.00,,,0.00,Wunderground v.1.15,2013-08-20 21:38:00,
2013-08-20 16:44:00,82.7,68.4,29.94,WNW,301,0.0,0.0,62,0.00,,,0.00,Wunderground v.1.15,2013-08-20 21:44:00,
2013-08-20 16:50:00,82.8,68.4,29.94,West,276,0.0,0.0,62,0.00,,,0.00,Wunderground v.1.15,2013-08-20 21:50:00,
2013-08-20 16:56:00,82.7,68.4,29.93,SE,127,0.0,1.0,62,0.00,,,0.00,Wunderground v.1.15,2013-08-20 21:56:00,
2013-08-20 17:02:00,82.7,68.4,29.93,ESE,102,1.0,1.0,62,0.00,,,0.00,Wunderground v.1.15,2013-08-20 22:02:00,
2013-08-20 17:08:00,82.8,68.4,29.93,WNW,285,0.0,1.0,62,0.00,,,0.00,Wunderground v.1.15,2013-08-20 22:08:00,
2013-08-20 17:14:00,82.5,67.7,29.93,SSE,148,0.0,0.0,61,0.00,,,0.00,Wunderground v.1.15,2013-08-20 22:14:00,
2013-08-20 17:20:00,81.9,68.5,29.93,WNW,293,0.0,1.0,64,0.00,,,0.00,Wunderground v.1.15,2013-08-20 22:20:00,
2013-08-20 17:26:00,81.4,68.1,29.93,ESE,121,0.0,1.0,64,0.00,,,0.00,Wunderground v.1.15,2013-08-20 22:26:00,
2013-08-20 17:32:00,81.2,67.4,29.93,WNW,298,0.0,0.0,63,0.00,,,0.00,Wunderground v.1.15,2013-08-20 22:32:00,
2013-08-20 17:38:00,81.1,67.8,29.93,SE,131,0.0,0.0,64,0.00,,,0.00,Wunderground v.1.15,2013-08-20 22:38:00,
2013-08-20 17:44:00,81.2,67.4,29.93,ENE,73,0.0,1.0,63,0.00,,,0.00,Wunderground v.1.15,2013-08-20 22:44:00,
2013-08-20 17:50:00,81.0,67.2,29.93,South,179,0.0,1.0,63,0.00,,,0.00,Wunderground v.1.15,2013-08-20 22:50:00,
2013-08-20 17:56:00,80.9,67.1,29.93,ESE,117,0.0,1.0,63,0.00,,,0.00,Wunderground v.1.15,2013-08-20 22:56:00,
2013-08-20 18:02:00,80.7,66.5,29.93,SE,139,0.0,0.0,62,0.00,,,0.00,Wunderground v.1.15,2013-08-20 23:02:00,
2013-08-20 18:08:00,80.5,66.7,29.93,ESE,105,0.0,0.0,63,0.00,,,0.00,Wunderground v.1.15,2013-08-20 23:08:00,
2013-08-20 18:14:00,80.3,66.1,29.93,SE,129,0.0,0.0,62,0.00,,,0.00,Wunderground v.1.15,2013-08-20 23:14:00,
2013-08-20 18:20:00,80.2,66.5,29.92,ESE,115,0.0,1.0,63,0.00,,,0.00,Wunderground v.1.15,2013-08-20 23:20:00,
2013-08-20 18:26:00,80.0,66.3,29.92,ESE,115,0.0,1.0,63,0.00,,,0.00,Wunderground v.1.15,2013-08-20 23:26:00,
2013-08-20 18:32:00,79.8,66.5,29.92,ESE,115,0.0,1.0,64,0.00,,,0.00,Wunderground v.1.15,2013-08-20 23:32:00,
2013-08-20 18:38:00,79.5,66.7,29.92,SSE,150,0.0,1.0,65,0.00,,,0.00,Wunderground v.1.15,2013-08-20 23:38:00,
2013-08-20 18:44:00,79.3,66.1,29.92,SSE,165,0.0,0.0,64,0.00,,,0.00,Wunderground v.1.15,2013-08-20 23:44:00,
2013-08-20 18:50:00,79.0,66.2,29.92,WSW,249,0.0,0.0,65,0.00,,,0.00,Wunderground v.1.15,2013-08-20 23:50:00,
2013-08-20 18:56:00,78.9,65.7,29.92,SE,138,0.0,2.0,64,0.00,,,0.00,Wunderground v.1.15,2013-08-20 23:56:00,
2013-08-20 19:02:00,78.6,65.4,29.92,SSE,163,0.0,0.0,64,0.00,,,0.00,Wunderground v.1.15,2013-08-21 00:02:00,
2013-08-20 19:08:00,78.3,65.1,29.92,SSE,155,0.0,0.0,64,0.00,,,0.00,Wunderground v.1.15,2013-08-21 00:08:00,
2013-08-20 19:14:00,78.1,64.9,29.92,ESE,115,0.0,0.0,64,0.00,,,0.00,Wunderground v.1.15,2013-08-21 00:14:00,
2013-08-20 19:20:00,77.8,65.1,29.92,ESE,104,0.0,0.0,65,0.00,,,0.00,Wunderground v.1.15,2013-08-21 00:20:00,
2013-08-20 19:26:00,77.4,65.1,29.93,SSE,157,0.0,0.0,66,0.00,,,0.00,Wunderground v.1.15,2013-08-21 00:26:00,
2013-08-20 19:32:00,77.1,64.9,29.93,SE,145,0.0,0.0,66,0.00,,,0.00,Wunderground v.1.15,2013-08-21 00:32:00,
2013-08-20 19:38:00,76.7,64.9,29.93,SE,141,0.0,0.0,67,0.00,,,0.00,Wunderground v.1.15,2013-08-21 00:38:00,
2013-08-20 19:44:00,76.3,64.5,29.93,ESE,110,0.0,0.0,67,0.00,,,0.00,Wunderground v.1.15,2013-08-21 00:44:00,
2013-08-20 19:50:00,75.9,64.6,29.93,ESE,111,0.0,0.0,68,0.00,,,0.00,Wunderground v.1.15,2013-08-21 00:50:00,
2013-08-20 19:56:00,75.7,64.4,29.93,ESE,111,0.0,2.0,68,0.00,,,0.00,Wunderground v.1.15,2013-08-21 00:56:00,
2013-08-20 20:02:00,75.4,64.5,29.93,SE,125,0.0,0.0,69,0.00,,,0.00,Wunderground v.1.15,2013-08-21 01:02:00,
2013-08-20 20:08:00,75.1,64.6,29.93,SE,127,0.0,0.0,70,0.00,,,0.00,Wunderground v.1.15,2013-08-21 01:08:00,
2013-08-20 20:14:00,74.8,64.4,29.93,SE,127,0.0,0.0,70,0.00,,,0.00,Wunderground v.1.15,2013-08-21 01:14:00,
2013-08-20 20:20:00,74.7,64.3,29.93,West,264,0.0,0.0,70,0.00,,,0.00,Wunderground v.1.15,2013-08-21 01:20:00,
2013-08-20 20:24:00,74.6,64.2,29.93,West,263,0.0,0.0,70,0.00,,,0.00,Wunderground v.1.15,2013-08-21 01:24:00,
2013-08-20 20:30:00,74.5,64.1,29.93,WNW,290,0.0,0.0,70,0.00,,,0.00,Wunderground v.1.15,2013-08-21 01:30:00,
2013-08-20 20:36:00,74.6,64.6,29.94,NNW,336,0.0,0.0,71,0.00,,,0.00,Wunderground v.1.15,2013-08-21 01:36:00,
2013-08-20 20:42:00,74.5,64.5,29.94,ENE,59,0.0,0.0,71,0.00,,,0.00,Wunderground v.1.15,2013-08-21 01:42:00,
2013-08-20 20:48:00,74.4,64.4,29.94,ESE,102,0.0,0.0,71,0.00,,,0.00,Wunderground v.1.15,2013-08-21 01:48:00,
2013-08-20 20:54:00,74.4,64.4,29.94,West,265,0.0,0.0,71,0.00,,,0.00,Wunderground v.1.15,2013-08-21 01:54:00,
2013-08-20 21:00:00,74.3,64.3,29.94,SE,131,0.0,0.0,71,0.00,,,0.00,Wunderground v.1.15,2013-08-21 02:00:00,
2013-08-20 21:06:00,74.2,64.2,29.94,East,82,0.0,0.0,71,0.00,,,0.00,Wunderground v.1.15,2013-08-21 02:06:00,
2013-08-20 21:12:00,74.4,64.4,29.94,SSE,166,0.0,0.0,71,0.00,,,0.00,Wunderground v.1.15,2013-08-21 02:12:00,
2013-08-20 21:18:00,74.4,64.4,29.94,SSW,212,0.0,0.0,71,0.00,,,0.00,Wunderground v.1.15,2013-08-21 02:18:00,
2013-08-20 21:24:00,74.4,64.4,29.94,SE,124,0.0,2.0,71,0.00,,,0.00,Wunderground v.1.15,2013-08-21 02:24:00,
2013-08-20 21:30:00,74.4,64.0,29.94,ESE,105,0.0,1.0,70,0.00,,,0.00,Wunderground v.1.15,2013-08-21 02:30:00,
2013-08-20 21:36:00,74.5,64.1,29.94,SE,129,0.0,2.0,70,0.00,,,0.00,Wunderground v.1.15,2013-08-21 02:36:00,
2013-08-20 21:42:00,74.6,63.8,29.94,ESE,115,0.0,1.0,69,0.00,,,0.00,Wunderground v.1.15,2013-08-21 02:42:00,
2013-08-20 21:48:00,74.5,63.7,29.94,ESE,104,0.0,1.0,69,0.00,,,0.00,Wunderground v.1.15,2013-08-21 02:48:00,
2013-08-20 21:54:00,74.5,63.7,29.94,East,90,0.0,0.0,69,0.00,,,0.00,Wunderground v.1.15,2013-08-21 02:54:00,
2013-08-20 22:00:00,74.4,63.6,29.94,SE,139,0.0,0.0,69,0.00,,,0.00,Wunderground v.1.15,2013-08-21 03:00:00,
2013-08-20 22:06:00,74.5,63.7,29.94,SE,131,1.0,2.0,69,0.00,,,0.00,Wunderground v.1.15,2013-08-21 03:06:00,
2013-08-20 22:12:00,74.6,63.8,29.94,SE,145,1.0,4.0,69,0.00,,,0.00,Wunderground v.1.15,2013-08-21 03:12:00,
2013-08-20 22:18:00,74.6,63.3,29.94,SSE,155,1.0,4.0,68,0.00,,,0.00,Wunderground v.1.15,2013-08-21 03:18:00,
2013-08-20 22:24:00,74.5,63.7,29.94,SSE,148,0.0,1.0,69,0.00,,,0.00,Wunderground v.1.15,2013-08-21 03:24:00,
2013-08-20 22:30:00,74.3,63.5,29.94,ESE,122,0.0,1.0,69,0.00,,,0.00,Wunderground v.1.15,2013-08-21 03:30:00,
2013-08-20 22:36:00,74.3,63.9,29.94,SE,130,1.0,1.0,70,0.00,,,0.00,Wunderground v.1.15,2013-08-21 03:36:00,
2013-08-20 22:42:00,74.2,63.8,29.94,SSE,157,1.0,1.0,70,0.00,,,0.00,Wunderground v.1.15,2013-08-21 03:42:00,
2013-08-20 22:48:00,74.2,63.8,29.94,SSE,150,1.0,2.0,70,0.00,,,0.00,Wunderground v.1.15,2013-08-21 03:48:00,
2013-08-20 22:54:00,74.2,63.8,29.94,SE,133,2.0,2.0,70,0.00,,,0.00,Wunderground v.1.15,2013-08-21 03:54:00,
2013-08-20 23:00:00,74.0,63.6,29.94,SSE,153,1.0,2.0,70,0.00,,,0.00,Wunderground v.1.15,2013-08-21 04:00:00,
2013-08-20 23:02:00,74.0,64.0,29.94,SSE,153,1.0,2.0,71,0.00,,,0.00,Wunderground v.1.15,2013-08-21 04:02:00,
2013-08-20 23:04:00,73.9,63.9,29.94,SE,136,1.0,2.0,71,0.00,,,0.00,Wunderground v.1.15,2013-08-21 04:04:00,
2013-08-20 23:10:00,73.8,63.8,29.94,WNW,291,1.0,1.0,71,0.00,,,0.00,Wunderground v.1.15,2013-08-21 04:10:00,
2013-08-20 23:12:00,73.8,63.8,29.94,SE,140,1.0,1.0,71,0.00,,,0.00,Wunderground v.1.15,2013-08-21 04:12:00,
2013-08-20 23:14:00,73.8,63.8,29.94,SSE,155,1.0,1.0,71,0.00,,,0.00,Wunderground v.1.15,2013-08-21 04:14:00,
2013-08-20 23:20:00,73.7,64.1,29.94,South,170,1.0,1.0,72,0.00,,,0.00,Wunderground v.1.15,2013-08-21 04:20:00,
2013-08-20 23:22:00,73.7,64.1,29.94,SE,131,1.0,1.0,72,0.00,,,0.00,Wunderground v.1.15,2013-08-21 04:22:00,
2013-08-20 23:28:00,73.6,64.0,29.94,SE,141,1.0,2.0,72,0.00,,,0.00,Wunderground v.1.15,2013-08-21 04:28:00,
2013-08-20 23:34:00,73.5,64.3,29.94,SSE,165,0.0,2.0,73,0.00,,,0.00,Wunderground v.1.15,2013-08-21 04:34:00,
2013-08-20 23:40:00,73.4,64.2,29.94,SE,145,1.0,1.0,73,0.00,,,0.00,Wunderground v.1.15,2013-08-21 04:40:00,
2013-08-20 23:46:00,73.3,64.1,29.94,SE,145,1.0,3.0,73,0.00,,,0.00,Wunderground v.1.15,2013-08-21 04:46:00,
2013-08-20 23:52:00,73.1,63.9,29.94,SE,133,1.0,1.0,73,0.00,,,0.00,Wunderground v.1.15,2013-08-21 04:52:00,
2013-08-20 23:58:00,73.0,63.8,29.94,SE,139,1.0,5.0,73,0.00,,,0.00,Wunderground v.1.15,2013-08-21 04:58:00,